Temp
27 25 27 27 27 26 24 27 31 29 31 32 32 32 32 32 32 31 31 31 31 32
24 25 25 27 29 29 29 30 30 30 29 30 30 30 31 30 29 29 29 29 31 31
22 23 23 28 28 28 28 28 28 28 28 29 29 29 29 28 29 28 29 30 29 30
22 21 24 27 27 27 27 27 27 28 28 28 28 29 28 28 28 27 27 30 29 29
20 19 25 26 27 27 27 28 27 28 28 28 28 28 26 27 28 27 27 26 26 27
18 18 16 22 26 27 27 27 28 29 28 28 28 27 29 29 28 19 22 23 24 25
16 16 17 23 26 26 27 27 28 28 27 27 21 21 20 21 16 13 14 17 21 24
13 12 14 18 24 26 27 28 20 18 16 17 16 20 17 18 15 12 13 15 18 21
8 12 14 15 16 17 18 17 14 16 14 16 21 29 33 30 13 14 18 18 19 22
16 17 18 19 19 18 16 15 16 15 16 17 17 30 34 35 20 16 17 19 23 25
19 20 21 20 19 19 18 18 19 20 21 22 25 32 34 34 29 25 25 23 23 22
21 21 21 21 21 20 19 20 21 23 22 22 25 32 33 33 28 28 27 28 27 26
22 22 21 22 22 23 22 24 24 26 25 24 25 30 33 33 28 26 24 26 26 29
23 22 23 23 23 22 21 23 20 21 22 21 23 25 31 33 30 26 25 24 23 23
MSLP
1021.28 1021.21 1021.10 1021.01 1021.02 1021.24 1021.18 1020.93 1020.68 1020.48 1020.25 1020.14 1020.14 1019.95 1019.79 1019.62 1019.42 1019.29 1019.06 1018.76 1018.58 1018.28
1021.05 1020.97 1020.83 1020.79 1020.90 1020.87 1020.80 1020.50 1020.37 1020.19 1020.05 1020.06 1019.97 1019.76 1019.54 1019.35 1019.14 1018.94 1018.65 1018.35 1017.95 1017.60
1020.90 1020.69 1020.54 1020.62 1020.62 1020.56 1020.42 1020.35 1020.01 1019.81 1019.86 1019.77 1019.52 1019.36 1019.25 1019.02 1018.76 1018.54 1018.15 1017.80 1017.44 1017.06
1020.65 1020.46 1020.39 1020.39 1020.30 1020.21 1020.10 1019.82 1019.63 1019.64 1019.56 1019.41 1019.15 1018.92 1018.78 1018.57 1018.35 1018.12 1017.76 1017.40 1017.05 1016.70
1020.55 1020.55 1020.39 1020.10 1019.92 1019.82 1019.61 1019.40 1019.36 1019.34 1019.18 1018.92 1018.72 1018.59 1018.46 1018.20 1017.91 1017.78 1017.56 1017.32 1016.95 1016.31
1020.76 1020.63 1020.33 1020.02 1019.63 1019.38 1019.21 1019.18 1019.09 1019.03 1018.83 1018.61 1018.49 1018.37 1018.08 1017.88 1017.73 1017.68 1017.45 1017.13 1016.71 1016.10
1020.58 1020.35 1020.14 1019.77 1019.38 1019.20 1019.00 1018.92 1018.76 1018.59 1018.43 1018.32 1018.24 1018.09 1017.78 1017.62 1017.43 1017.27 1017.05 1016.76 1016.37 1015.84
1020.04 1019.88 1019.87 1019.46 1019.14 1019.00 1018.69 1018.46 1018.43 1018.34 1018.13 1018.04 1017.91 1017.52 1017.31 1016.99 1016.97 1016.84 1016.71 1016.33 1015.93 1015.45
1019.67 1019.60 1019.37 1018.98 1018.80 1018.65 1018.43 1018.17 1018.24 1018.00 1017.77 1017.78 1017.32 1016.96 1016.61 1016.21 1016.30 1016.21 1016.26 1016.01 1015.42 1014.99
1019.01 1018.89 1018.63 1018.40 1018.31 1018.20 1018.10 1017.84 1017.80 1017.52 1017.35 1017.06 1016.57 1016.30 1015.89 1015.72 1015.60 1015.63 1015.59 1015.41 1015.00 1014.63
1018.25 1018.10 1017.79 1017.78 1017.70 1017.48 1017.44 1017.37 1017.17 1016.74 1016.49 1016.32 1015.78 1015.50 1015.17 1015.00 1014.97 1015.02 1014.86 1014.67 1014.46 1014.23
1017.41 1017.24 1017.08 1016.91 1016.78 1016.60 1016.68 1016.45 1016.27 1016.02 1015.81 1015.70 1015.13 1014.88 1014.59 1014.45 1014.43 1014.40 1014.23 1013.99 1013.74 1013.55
1016.69 1016.52 1016.25 1015.97 1015.82 1015.71 1015.70 1015.47 1015.37 1015.10 1014.94 1014.69 1014.42 1014.26 1014.02 1013.86 1013.85 1013.76 1013.62 1013.32 1013.12 1012.91
1016.22 1015.87 1015.49 1015.21 1015.07 1014.99 1014.94 1014.75 1014.62 1014.43 1014.25 1014.11 1013.89 1013.55 1013.31 1013.01 1012.92 1012.87 1012.85 1012.77 1012.51 1012.34
Wind_Speed
2 2 3 3 1 2 2 2 4 3 4 5 6 6 6 5 4 6 7 9 8 7
3 4 2 3 3 2 3 3 3 4 4 5 6 6 5 4 6 6 7 8 8 7
3 4 2 2 4 4 4 5 4 4 5 6 6 5 5 5 6 7 6 7 9 9
4 3 3 4 4 5 4 4 4 5 6 6 5 4 5 6 7 8 9 8 8 10
3 4 5 4 5 5 4 4 5 6 6 5 4 5 5 6 6 6 8 10 9 10
5 5 5 6 5 4 4 5 5 6 5 5 5 5 6 5 4 4 6 7 7 7
5 5 5 6 4 5 5 5 6 5 5 5 3 5 5 5 4 4 4 5 6 6
5 4 6 6 5 6 5 5 4 4 4 5 4 4 5 5 5 4 4 4 5 5
4 5 7 6 6 5 6 6 5 6 4 6 5 11 12 8 4 4 5 5 5 5
5 6 6 6 5 6 6 4 6 6 5 7 6 13 12 13 3 4 5 5 5 5
6 8 7 6 7 6 5 6 7 6 6 7 7 13 13 12 5 4 6 5 5 5
6 8 7 8 8 6 5 6 7 6 6 7 8 13 13 11 5 6 6 5 6 5
6 7 8 8 8 6 6 8 6 8 7 8 9 13 15 12 4 7 5 5 6 8
7 8 8 8 7 6 7 7 6 8 7 7 8 10 17 17 7 6 5 5 4 4
Wind_Direction
280 254 261 262 222 267 233 254 284 290 308 308 297 288 278 271 269 284 280 276 270 269
273 266 247 264 260 275 268 278 276 280 290 283 272 267 268 274 274 269 268 265 260 261
262 276 260 275 261 260 265 255 264 283 270 262 259 258 262 267 266 263 270 277 270 264
276 284 272 253 256 259 253 259 276 271 270 268 266 265 264 266 281 279 279 281 278 278
297 285 262 264 253 252 257 258 262 265 265 268 271 266 272 270 269 292 296 295 289 283
264 265 268 264 251 259 260 265 264 261 261 269 266 274 270 262 270 278 281 290 289 285
253 253 255 257 262 266 256 258 260 257 258 268 271 273 277 269 266 290 280 289 286 287
250 253 263 266 249 254 250 252 265 279 283 278 263 259 265 250 244 260 287 283 287 278
255 255 252 249 246 257 264 265 271 268 251 273 268 280 283 285 224 250 263 282 286 280
245 250 247 246 240 242 247 243 257 263 255 260 254 271 277 281 232 244 258 264 273 294
235 249 250 241 241 245 232 239 251 249 247 257 263 274 277 279 270 266 266 255 254 247
239 247 244 243 244 236 231 242 244 246 250 249 261 268 273 277 264 263 266 268 264 256
254 247 250 247 246 242 230 250 244 252 238 242 259 266 270 268 245 259 258 262 264 267
283 264 256 256 244 238 239 245 241 250 253 246 248 264 269 265 246 235 248 257 260 250